GW4073 Weather Reports


Display with metric or nautical units.
time (UTC)temp
F
wind
direction
speed
MPH
gust
MPH
rain 1hr
in
rain 24hr
in
rain mn
in
humidity
%
barometer
mb
20260902133913 55 63 2.0 5.0 0.00 0.00 0.00 89 1015.6
20260902133412 55 260 1.0 2.0 0.00 0.00 0.00 90 1015.6
20260902132907 55 80 1.0 1.0 0.00 0.00 0.00 90 1015.7
20260902132402 55 130 0.0 2.0 0.00 0.00 0.00 90 1015.5
20260902131858 55 49 2.0 2.0 0.00 0.00 0.00 90 1015.4
20260902131355 55 304 0.0 2.0 0.00 0.00 0.00 89 1015.5
20260902130853 55 69 2.0 2.0 0.00 0.00 0.00 89 1015.4
20260902130350 56 305 0.0 2.0 0.00 0.00 0.00 88 1015.4
20260902125844 56 256 1.0 5.0 0.00 0.00 0.00 87 1015.4
20260902125341 57 352 2.0 3.0 0.00 0.00 0.00 86 1015.4
20260902124837 57 48 4.0 5.0 0.00 0.00 0.00 86 1015.2
20260902124332 57 61 3.0 4.0 0.00 0.00 0.00 86 1015.5
20260902123827 57 62 3.0 4.0 0.00 0.00 0.00 86 1015.0
20260902123323 56 68 2.0 3.0 0.00 0.00 0.00 86 1015.0
20260902122822 57 36 2.0 3.0 0.00 0.00 0.00 86 1015.2
20260902122318 57 89 0.0 2.0 0.00 0.00 0.00 85 1015.2
20260902121817 57 77 2.0 3.0 0.00 0.00 0.00 84 1015.2
20260902121313 57 45 3.0 3.0 0.00 0.00 0.00 85 1015.4
20260902120808 57 162 0.0 1.0 0.00 0.00 0.00 85 1015.4
20260902120305 57 36 0.0 1.0 0.00 0.00 0.00 84 1014.9
20260902115800 57 354 1.0 2.0 0.00 0.00 0.00 84 1014.9
20260902115256 57 8 2.0 3.0 0.00 0.00 0.00 83 1014.9
20260902114752 57 40 2.0 2.0 0.00 0.00 0.00 83 1014.8
20260902114248 57 44 2.0 5.0 0.00 0.00 0.00 83 1014.7
20260902113747 57 68 1.0 3.0 0.00 0.00 0.00 83 1015.0
20260902113243 57 57 2.0 3.0 0.00 0.00 0.00 82 1015.0
20260902112742 57 18 3.0 4.0 0.00 0.00 0.00 82 1015.0
20260902112239 57 71 2.0 4.0 0.00 0.00 0.00 82 1015.1
20260902111734 57 84 4.0 5.0 0.00 0.00 0.00 83 1015.2
20260902111231 57 55 4.0 7.0 0.00 0.00 0.00 82 1015.0
20260902110726 57 57 3.0 4.0 0.00 0.00 0.00 82 1015.0
20260902110222 57 62 4.0 5.0 0.00 0.00 0.00 82 1015.1
20260902105716 57 46 2.0 3.0 0.00 0.00 0.00 82 1015.0
20260902105211 57 47 4.0 6.0 0.00 0.00 0.00 82 1015.2
20260902104706 57 82 4.0 5.0 0.00 0.00 0.00 82 1014.9
20260902104202 57 86 2.0 5.0 0.00 0.00 0.00 81 1015.1
20260902103702 57 44 4.0 4.0 0.00 0.00 0.00 82 1015.0
20260902103157 57 63 3.0 5.0 0.00 0.00 0.00 81 1015.0
20260902102652 57 58 2.0 5.0 0.00 0.00 0.00 81 1015.0
20260902102149 57 93 4.0 4.0 0.00 0.00 0.00 81 1015.1
20260902101645 57 115 3.0 6.0 0.00 0.00 0.00 81 1014.9
20260902101144 57 103 3.0 6.0 0.00 0.00 0.00 81 1015.1
20260902100639 57 78 1.0 4.0 0.00 0.00 0.00 81 1015.0
20260902100134 57 44 5.0 5.0 0.00 0.00 0.00 81 1015.4
20260902095633 57 336 0.0 3.0 0.00 0.00 0.00 81 1015.1
20260902095132 57 40 3.0 4.0 0.00 0.00 0.00 81 1015.1
20260902094627 57 82 3.0 5.0 0.00 0.00 0.00 81 1015.4
20260902094118 57 81 3.0 5.0 0.00 0.00 0.00 81 1015.4
20260902093611 57 27 2.0 2.0 0.00 0.00 0.00 81 1015.4
20260902093106 57 101 2.0 4.0 0.00 0.00 0.00 80 1015.5
20260902092600 57 76 2.0 6.0 0.00 0.00 0.00 80 1015.4
20260902092056 57 103 4.0 4.0 0.00 0.00 0.00 80 1015.4
20260902091551 57 42 3.0 4.0 0.00 0.00 0.00 80 1015.2
20260902091047 57 54 4.0 6.0 0.00 0.00 0.00 80 1015.2
20260902090542 57 75 2.0 5.0 0.00 0.00 0.00 80 1015.4
20260902090041 57 38 0.0 1.0 0.00 0.00 0.00 80 1015.4
20260902085535 57 39 3.0 4.0 0.00 0.00 0.00 80 1015.4
20260902085032 56 73 1.0 2.0 0.00 0.00 0.00 83 1015.6
20260902084528 56 278 2.0 2.0 0.00 0.00 0.00 83 1015.6
20260902084023 57 321 0.0 3.0 0.00 0.00 0.00 80 1015.4
20260902083518 57 59 3.0 5.0 0.00 0.00 0.00 78 1015.2
20260902083012 57 40 2.0 3.0 0.00 0.00 0.00 78 1015.6
20260902082508 57 37 4.0 7.0 0.00 0.00 0.00 79 1015.4
20260902082004 57 64 3.0 9.0 0.00 0.00 0.00 79 1015.5
20260902081501 57 82 2.0 7.0 0.00 0.00 0.00 78 1015.4
20260902081000 58 63 3.0 7.0 0.00 0.00 0.00 78 1015.5
20260902080457 58 66 3.0 7.0 0.00 0.00 0.00 78 1015.5
20260902075957 58 32 1.0 4.0 0.00 0.00 0.00 78 1015.5
20260902075453 57 31 3.0 5.0 0.00 0.00 0.00 78 1015.4
20260902074948 58 45 6.0 6.0 0.00 0.00 0.00 78 1015.4
20260902074443 57 34 4.0 5.0 0.00 0.00 0.00 79 1015.4
20260902073938 57 34 1.0 1.0 0.00 0.00 0.00 80 1015.5
20260902073434 57 38 2.0 2.0 0.00 0.00 0.00 78 1015.5
20260902072930 58 52 2.0 4.0 0.00 0.00 0.00 77 1015.4
20260902072426 58 63 2.0 6.0 0.00 0.00 0.00 77 1015.2
20260902071922 58 54 3.0 5.0 0.00 0.00 0.00 78 1015.4
20260902071421 57 40 2.0 6.0 0.00 0.00 0.00 78 1015.2
20260902070918 57 73 2.0 2.0 0.00 0.00 0.00 78 1015.5
20260902070414 57 350 4.0 10.0 0.00 0.00 0.00 78 1015.4
20260902065912 58 54 4.0 5.0 0.00 0.00 0.00 77 1015.5
20260902065407 58 50 4.0 6.0 0.00 0.00 0.00 77 1015.5
20260902064903 58 60 6.0 8.0 0.00 0.00 0.00 77 1015.6
20260902064358 58 45 4.0 6.0 0.00 0.00 0.00 77 1015.6
20260902063854 58 49 4.0 6.0 0.00 0.00 0.00 76 1015.4
20260902063349 58 51 6.0 9.0 0.00 0.00 0.00 76 1015.5
20260902062849 58 68 4.0 5.0 0.00 0.00 0.00 76 1015.8
20260902062348 59 43 0.0 5.0 0.00 0.00 0.00 76 1015.2
20260902061848 59 57 2.0 3.0 0.00 0.00 0.00 75 1015.5
20260902061343 59 273 1.0 5.0 0.00 0.00 0.00 75 1015.5
20260902060839 59 95 4.0 6.0 0.00 0.00 0.00 74 1015.2
20260902060335 59 51 5.0 7.0 0.00 0.00 0.00 74 1015.4
20260902055830 60 59 3.0 5.0 0.00 0.15 0.15 73 1015.2
20260902055326 60 48 5.0 5.0 0.00 0.15 0.15 72 1015.4
20260902054821 60 50 5.0 6.0 0.00 0.15 0.15 74 1015.4
20260902054317 60 67 5.0 9.0 0.00 0.15 0.15 72 1015.4
20260902053812 60 63 6.0 8.0 0.00 0.15 0.15 72 1015.4
20260902053307 60 61 5.0 6.0 0.00 0.15 0.15 72 1015.5
20260902052806 60 73 7.0 10.0 0.00 0.15 0.15 72 1015.4
20260902052306 60 41 5.0 9.0 0.00 0.15 0.15 72 1015.6
20260902051801 61 51 5.0 8.0 0.00 0.15 0.15 71 1015.5
20260902051255 61 45 4.0 6.0 0.00 0.15 0.15 70 1015.6
20260902050751 61 64 5.0 6.0 0.00 0.15 0.15 70 1015.5
20260902050246 61 64 6.0 9.0 0.00 0.15 0.15 71 1015.5
20260902045745 61 57 3.0 6.0 0.00 0.15 0.15 71 1015.5
20260902045242 61 47 6.0 6.0 0.00 0.15 0.15 71 1015.5
20260902044737 61 58 4.0 9.0 0.00 0.15 0.15 71 1015.4
20260902044232 61 45 5.0 8.0 0.00 0.15 0.15 72 1015.4
20260902043727 62 93 3.0 5.0 0.00 0.15 0.15 71 1015.4
20260902043223 61 23 1.0 3.0 0.00 0.15 0.15 73 1015.4
20260902042722 62 36 2.0 3.0 0.00 0.15 0.15 72 1015.4
20260902042217 62 82 2.0 3.0 0.00 0.15 0.15 72 1015.5
20260902041712 62 40 2.0 5.0 0.00 0.15 0.15 72 1015.5
20260902041207 62 62 2.0 3.0 0.00 0.15 0.15 73 1015.0
20260902040706 61 15 1.0 2.0 0.00 0.15 0.15 73 1015.1
20260902040202 62 16 1.0 3.0 0.00 0.15 0.15 72 1015.2
20260902035700 62 25 2.0 3.0 0.00 0.15 0.15 72 1015.0
20260902035156 62 45 2.0 3.0 0.00 0.15 0.15 73 1015.1
20260902034655 62 24 2.0 4.0 0.00 0.15 0.15 74 1015.1
20260902034154 62 38 3.0 3.0 0.00 0.15 0.15 76 1015.1
20260902033653 62 76 1.0 2.0 0.00 0.15 0.15 76 1014.9
20260902033148 63 9 1.0 2.0 0.00 0.15 0.15 75 1014.9
20260902032647 63 25 2.0 2.0 0.00 0.15 0.15 74 1014.8
20260902032142 63 26 1.0 2.0 0.00 0.15 0.15 73 1014.9
20260902031641 63 30 2.0 2.0 0.00 0.15 0.15 71 1014.7
20260902031138 64 6 2.0 2.0 0.00 0.15 0.15 73 1014.5
20260902030633 64 8 2.0 2.0 0.00 0.15 0.15 72 1014.3
20260902030132 64 11 2.0 2.0 0.00 0.15 0.15 69 1014.3
20260902025632 65 356 2.0 2.0 0.00 0.15 0.15 68 1014.4
20260902025128 65 37 1.0 2.0 0.00 0.15 0.15 71 1014.4
20260902024623 66 53 0.0 2.0 0.00 0.15 0.15 68 1014.1
20260902024117 66 342 1.0 2.0 0.00 0.15 0.15 66 1014.2
20260902023613 67 352 0.0 2.0 0.00 0.15 0.15 64 1014.1
20260902023108 67 356 1.0 2.0 0.00 0.15 0.15 66 1013.8
20260902022608 68 331 1.0 1.0 0.00 0.15 0.15 65 1014.4
20260902022104 68 44 0.0 2.0 0.00 0.15 0.15 62 1014.1
20260902021559 68 334 1.0 2.0 0.00 0.15 0.15 62 1013.9
20260902021053 68 324 1.0 1.0 0.00 0.15 0.15 61 1013.9
20260902020549 69 345 0.0 1.0 0.00 0.15 0.15 56 1013.9
20260902020045 69 330 1.0 2.0 0.00 0.15 0.15 57 1013.9
20260902015541 69 321 2.0 2.0 0.00 0.15 0.15 57 1014.1
20260902015036 70 318 1.0 2.0 0.00 0.15 0.15 56 1014.2
20260902014532 70 339 0.0 2.0 0.00 0.15 0.15 54 1014.1
20260902014028 71 343 0.0 2.0 0.00 0.15 0.15 56 1014.3
20260902013522 71 337 2.0 2.0 0.00 0.15 0.15 51 1014.2
20260902013018 72 289 1.0 2.0 0.00 0.15 0.15 50 1014.4
20260902012513 73 350 1.0 3.0 0.00 0.15 0.15 50 1014.2
20260902012009 73 305 3.0 4.0 0.00 0.15 0.15 48 1014.4
20260902011504 73 274 1.0 3.0 0.00 0.15 0.15 48 1014.2
20260902011003 73 343 0.0 6.0 0.00 0.15 0.15 47 1014.3
20260902010458 73 289 1.0 4.0 0.00 0.15 0.15 48 1014.5
20260902005957 73 248 0.0 4.0 0.00 0.15 0.15 50 1014.2
20260902005456 74 179 2.0 4.0 0.00 0.15 0.15 49 1014.2
20260902004953 75 252 1.0 5.0 0.00 0.15 0.15 47 1014.2
20260902004452 76 281 2.0 8.0 0.00 0.15 0.15 46 1014.3
20260902003948 76 300 2.0 7.0 0.00 0.15 0.15 45 1014.3
20260902003448 77 304 3.0 5.0 0.00 0.15 0.15 45 1014.1
20260902002943 77 313 4.0 4.0 0.00 0.15 0.15 43 1014.3
20260902002438 79 243 4.0 8.0 0.00 0.15 0.15 40 1014.4
20260902001937 80 271 3.0 5.0 0.00 0.15 0.15 43 1014.4
20260902001432 78 275 4.0 5.0 0.00 0.15 0.15 43 1014.4
20260902000928 78 227 2.0 4.0 0.00 0.15 0.15 43 1014.4
20260902000423 79 325 2.0 4.0 0.00 0.15 0.15 44 1014.3
20260901235918 78 250 2.0 7.0 0.00 0.15 0.15 46 1014.3
20260901235419 80 190 3.0 6.0 0.00 0.15 0.15 43 1014.3
20260901234914 81 263 5.0 6.0 0.00 0.15 0.15 44 1014.3
20260901234407 80 210 2.0 6.0 0.00 0.15 0.15 44 1014.4
20260901233902 80 293 2.0 6.0 0.00 0.15 0.15 44 1014.2
20260901233358 80 232 3.0 6.0 0.00 0.15 0.15 48 1014.1
20260901232855 81 149 6.0 7.0 0.00 0.15 0.15 43 1014.5
20260901232349 82 265 4.0 5.0 0.00 0.15 0.15 45 1014.4
20260901231845 82 261 1.0 3.0 0.00 0.15 0.15 43 1014.4
20260901231341 80 266 2.0 4.0 0.00 0.15 0.15 47 1014.5
20260901230837 80 250 4.0 5.0 0.00 0.15 0.15 47 1014.5
20260901230337 80 239 5.0 5.0 0.00 0.15 0.15 49 1014.5
20260901225832 79 304 0.0 3.0 0.00 0.15 0.15 53 1014.9
20260901225331 82 263 1.0 3.0 0.00 0.15 0.15 47 1014.8
20260901224826 82 284 2.0 2.0 0.00 0.15 0.15 49 1014.7
20260901224323 80 257 2.0 3.0 0.00 0.15 0.15 47 1014.8
20260901223819 79 332 2.0 4.0 0.00 0.15 0.15 49 1015.0
20260901223314 80 291 2.0 3.0 0.00 0.15 0.15 50 1015.0
20260901222810 80 298 2.0 3.0 0.00 0.15 0.15 49 1015.1
20260901222307 80 250 0.0 3.0 0.00 0.15 0.15 46 1014.9
20260901221802 78 185 2.0 3.0 0.00 0.15 0.15 48 1015.1
20260901221256 77 314 2.0 3.0 0.00 0.15 0.15 54 1015.1
20260901220750 77 331 2.0 2.0 0.00 0.15 0.15 54 1015.5
20260901220249 75 180 0.0 2.0 0.00 0.15 0.15 50 1015.5
20260901215748 77 274 2.0 2.0 0.00 0.15 0.15 52 1015.6
20260901215248 77 285 2.0 2.0 0.00 0.15 0.15 57 1015.6
20260901214746 75 162 2.0 4.0 0.00 0.15 0.15 53 1015.6
20260901214245 73 115 3.0 3.0 0.00 0.15 0.15 58 1015.6
20260901213740 73 285 2.0 2.0 0.00 0.15 0.15 60 1015.8
20260901213240 70 144 2.0 4.0 0.00 0.15 0.15 60 1015.8
20260901212740 71 9 1.0 2.0 0.00 0.15 0.15 65 1016.2
20260901212236 69 282 0.0 3.0 0.00 0.15 0.15 66 1016.3
20260901211731 69 30 5.0 5.0 0.00 0.15 0.15 67 1016.2
20260901211227 69 343 1.0 3.0 0.00 0.15 0.15 71 1016.3
20260901210723 68 54 1.0 4.0 0.00 0.15 0.15 75 1016.6
20260901210219 67 99 4.0 5.0 0.00 0.15 0.15 77 1016.8
20260901205715 66 327 2.0 7.0 0.05 0.15 0.15 81 1016.8
20260901205209 66 162 0.0 2.0 0.05 0.15 0.15 85 1017.1
20260901204705 66 269 0.0 2.0 0.00 0.15 0.15 74 1017.5
20260901204200 66 17 3.0 5.0 0.00 0.15 0.15 72 1017.2
20260901203655 65 29 4.0 8.0 0.00 0.15 0.15 73 1016.9
20260901203151 66 50 6.0 6.0 0.00 0.15 0.15 75 1017.0
20260901202649 66 71 3.0 8.0 0.00 0.15 0.15 76 1017.0
20260901202146 66 28 2.0 8.0 0.00 0.15 0.15 77 1017.2
20260901201641 66 22 8.0 9.0 0.00 0.15 0.15 78 1017.4
20260901201140 66 18 5.0 6.0 0.00 0.15 0.15 80 1017.5
20260901200639 64 51 5.0 9.0 0.00 0.15 0.15 82 1017.4
20260901200134 63 75 3.0 9.0 0.00 0.15 0.15 84 1017.4
20260901195632 63 52 3.0 5.0 0.00 0.15 0.15 91 1017.5
20260901195132 60 36 4.0 4.0 0.05 0.15 0.15 91 1018.1
20260901194627 61 10 2.0 2.0 0.05 0.15 0.15 92 1017.9
20260901194122 60 36 4.0 5.0 0.00 0.14 0.14 90 1017.9
20260901193619 60 96 2.0 5.0 0.02 0.14 0.14 90 1018.2
20260901193113 59 27 3.0 4.0 0.45 0.14 0.14 89 1018.2
20260901192608 59 102 1.0 9.0 0.64 0.13 0.13 88 1018.5
20260901192103 60 279 3.0 6.0 0.31 0.05 0.05 85 1018.8
20260901191559 64 292 4.0 8.0 0.09 0.02 0.02 79 1018.5
20260901191055 71 227 4.0 4.0 0.00 0.00 0.00 59 1017.6
20260901190550 72 171 6.0 7.0 0.00 0.00 0.00 52 1017.4
20260901190049 72 260 1.0 3.0 0.00 0.00 0.00 55 1017.2
20260901185542 73 187 3.0 5.0 0.00 0.00 0.00 55 1017.0
20260901185041 73 219 4.0 6.0 0.00 0.00 0.00 53 1017.2
20260901184537 73 201 4.0 10.0 0.00 0.00 0.00 53 1017.1
20260901184032 74 145 0.0 4.0 0.00 0.00 0.00 53 1017.1
20260901183527 74 164 4.0 6.0 0.00 0.00 0.00 49 1017.1
20260901183022 76 57 1.0 5.0 0.00 0.00 0.00 50 1017.1
20260901182518 78 338 2.0 6.0 0.00 0.00 0.00 51 1017.2
20260901182018 78 231 2.0 4.0 0.00 0.00 0.00 49 1017.4
20260901181517 78 179 3.0 4.0 0.00 0.00 0.00 47 1017.5
20260901181012 78 249 2.0 4.0 0.00 0.00 0.00 54 1017.9
20260901180510 76 309 1.0 6.0 0.00 0.00 0.00 53 1017.7
20260901180010 77 301 2.0 4.0 0.00 0.00 0.00 54 1017.9
20260901175504 77 220 4.0 6.0 0.00 0.00 0.00 51 1017.9
20260901174959 76 220 3.0 7.0 0.00 0.00 0.00 53 1018.2
20260901174454 75 243 2.0 9.0 0.00 0.00 0.00 52 1018.1
20260901173950 75 281 2.0 5.0 0.00 0.00 0.00 51 1017.8
20260901173445 76 189 5.0 11.0 0.00 0.00 0.00 51 1018.1
20260901172941 76 12 0.0 3.0 0.00 0.00 0.00 56 1018.1
20260901172436 75 293 3.0 4.0 0.00 0.00 0.00 58 1018.2
20260901171934 75 225 2.0 3.0 0.00 0.00 0.00 57 1018.2
20260901171433 73 261 2.0 3.0 0.00 0.00 0.00 57 1018.3
20260901170932 74 288 2.0 3.0 0.00 0.00 0.00 61 1018.1
20260901170427 75 285 2.0 2.0 0.00 0.00 0.00 61 1018.1
20260901165926 74 329 1.0 4.0 0.00 0.00 0.00 62 1018.1
20260901165421 73 265 3.0 4.0 0.00 0.00 0.00 64 1018.1
20260901164918 72 264 2.0 4.0 0.00 0.00 0.00 65 1018.3
20260901164413 72 327 3.0 3.0 0.00 0.00 0.00 62 1018.1
20260901163913 72 251 2.0 3.0 0.00 0.00 0.00 64 1018.2
20260901163408 73 339 2.0 3.0 0.00 0.00 0.00 62 1018.1
20260901162902 72 296 2.0 3.0 0.00 0.00 0.00 65 1017.9
20260901162401 72 277 2.0 3.0 0.00 0.00 0.00 64 1017.9
20260901161855 72 292 0.0 3.0 0.00 0.00 0.00 65 1017.6
20260901161349 71 286 2.0 3.0 0.00 0.00 0.00 65 1017.6
20260901160844 72 312 3.0 4.0 0.00 0.00 0.00 64 1017.9
20260901160341 72 289 0.0 2.0 0.00 0.00 0.00 64 1017.8
20260901155840 70 293 1.0 2.0 0.00 0.00 0.00 68 1017.6
20260901155335 72 260 1.0 2.0 0.00 0.00 0.00 66 1017.8
20260901154832 71 140 1.0 2.0 0.00 0.00 0.00 66 1017.7
20260901154331 70 319 0.0 2.0 0.00 0.00 0.00 69 1017.8
20260901153830 70 21 0.0 1.0 0.00 0.00 0.00 66 1017.8
20260901153325 68 103 2.0 3.0 0.00 0.00 0.00 69 1017.9
20260901152824 68 101 2.0 4.0 0.00 0.00 0.00 71 1017.8
20260901152323 68 52 3.0 4.0 0.00 0.00 0.00 70 1017.9
20260901151814 66 28 2.0 9.0 0.00 0.00 0.00 75 1017.7
20260901151314 64 15 0.0 10.0 0.00 0.00 0.00 76 1017.9
20260901150808 64 44 6.0 9.0 0.00 0.00 0.00 75 1017.7
20260901150306 65 45 4.0 6.0 0.00 0.00 0.00 75 1017.8
20260901145803 64 52 6.0 11.0 0.00 0.00 0.00 75 1017.6
20260901145257 64 351 2.0 7.0 0.00 0.00 0.00 75 1017.5
20260901144753 63 68 5.0 9.0 0.00 0.00 0.00 76 1017.7
20260901144249 64 41 5.0 7.0 0.00 0.00 0.00 75 1017.9
20260901143744 63 45 3.0 10.0 0.00 0.00 0.00 75 1017.8
20260901143240 63 40 4.0 7.0 0.00 0.00 0.00 76 1017.8
20260901142736 62 29 4.0 7.0 0.00 0.00 0.00 77 1017.7
20260901142235 62 43 4.0 8.0 0.00 0.00 0.00 77 1017.8
20260901141725 62 40 4.0 8.0 0.00 0.00 0.00 77 1017.5
20260901141224 60 37 5.0 9.0 0.00 0.00 0.00 79 1017.9
20260901140723 60 61 6.0 9.0 0.00 0.00 0.00 80 1017.8
20260901140222 58 41 6.0 8.0 0.00 0.00 0.00 82 1017.7
20260901135718 57 39 6.0 10.0 0.00 0.00 0.00 85 1017.6
20260901135217 56 36 4.0 9.0 0.00 0.00 0.00 85 1017.6
20260901134713 56 51 5.0 9.0 0.00 0.00 0.00 85 1017.6